Location: Wellington
(41.3000°S, 174.7830°E)
Time: 18:01:14
(UTC+13:00)

Cosmos 1763 Rocket - Pass Details

Date: 24 January 2019
Orbit: 733 x 780 km, 74.0° (Epoch: 23 October)

Event Time Altitude Azimuth Distance (km) Brightness Sun altitude
Rises 22:26:38 0° 205° (SSW) 3,269 8.1 -15.7°
Reaches altitude 10° 22:29:06 10° 210° (SSW) 2,328 7.2 -16.0°
Maximum altitude 22:34:11 50° 284° (WNW) 970 4.2 -16.7°
Enters shadow 22:38:08 16° 354° (N) 1,896 5.2 -17.2°
